LPA1050 UWWW-UUBW

Flight info

Callsign LPA1050
Flight time 1h 15m
Altitude 36000
Route REDMI2Z REDMI T750 OKSUD T787 URAGO URAGO2B
Aircraft B738/M-SDE2E3FGHIRWXY/LB1

Departure

Time 2026-04-30 18:11
Airport Kurumoch International Airport (UWWW)

Arrival

Time 2026-04-30 19:26
Airport Zhukovsky International Airport (UUBW)
Time Latitude Longitude Altitude Speed Heading
2026-04-30 17:39 53.51066 50.16078 446 ft 0 kts 332°
2026-04-30 18:04 53.51074 50.16073 446 ft 4 kts 338°
2026-04-30 18:05 53.51006 50.16592 446 ft 20 kts 121°
2026-04-30 18:06 53.50608 50.17168 440 ft 19 kts 160°
2026-04-30 18:07 53.50060 50.17496 437 ft 20 kts 160°
2026-04-30 18:08 53.49672 50.17727 437 ft 21 kts 160°
2026-04-30 18:09 53.49277 50.18118 438 ft 4 kts 82°
2026-04-30 18:10 53.49343 50.18307 436 ft 18 kts 24°
2026-04-30 18:11 53.51728 50.16931 745 ft 179 kts 341°
2026-04-30 18:11 53.55518 50.14820 2735 ft 211 kts 341°
2026-04-30 18:12 53.59965 50.11835 3934 ft 238 kts 325°
2026-04-30 18:13 53.62232 50.07768 4011 ft 249 kts 302°
2026-04-30 18:13 53.64453 50.00825 4077 ft 256 kts 299°
2026-04-30 18:14 53.66414 49.94626 5920 ft 259 kts 299°
2026-04-30 18:15 53.69022 49.86508 8326 ft 265 kts 299°
2026-04-30 18:15 53.71707 49.78210 10705 ft 268 kts 299°
2026-04-30 18:16 53.73225 49.73518 11583 ft 289 kts 297°
2026-04-30 18:16 53.75313 49.67042 11978 ft 333 kts 296°
2026-04-30 18:17 53.76437 49.63558 12546 ft 341 kts 296°
2026-04-30 18:17 53.77573 49.60033 13314 ft 342 kts 296°
2026-04-30 18:17 53.79849 49.52965 14692 ft 348 kts 295°
2026-04-30 18:18 53.81024 49.49308 15355 ft 351 kts 295°
2026-04-30 18:18 53.82194 49.45656 16007 ft 354 kts 295°
2026-04-30 18:18 53.83373 49.41973 16644 ft 357 kts 295°
2026-04-30 18:18 53.84561 49.38255 17263 ft 360 kts 295°
2026-04-30 18:19 53.85743 49.34548 17855 ft 364 kts 295°
2026-04-30 18:19 53.86951 49.30754 18461 ft 367 kts 294°
2026-04-30 18:19 53.88166 49.26936 19061 ft 369 kts 294°
2026-04-30 18:19 53.89385 49.23095 19659 ft 371 kts 294°
2026-04-30 18:20 53.90612 49.19227 20235 ft 374 kts 294°
2026-04-30 18:20 53.91849 49.15321 20774 ft 377 kts 293°
2026-04-30 18:20 53.93092 49.11388 21310 ft 379 kts 293°
2026-04-30 18:20 53.94339 49.07436 21830 ft 381 kts 293°
2026-04-30 18:21 53.95682 49.03523 22333 ft 386 kts 296°
2026-04-30 18:21 53.97140 48.99666 22818 ft 389 kts 297°
2026-04-30 18:21 53.98642 48.95812 23293 ft 392 kts 297°
2026-04-30 18:21 54.00154 48.91946 23773 ft 394 kts 297°
2026-04-30 18:22 54.01669 48.88044 24234 ft 396 kts 296°
2026-04-30 18:22 54.04698 48.80145 25004 ft 403 kts 296°
2026-04-30 18:22 54.06225 48.76121 25339 ft 407 kts 296°
2026-04-30 18:23 54.07769 48.72044 25707 ft 410 kts 296°
2026-04-30 18:23 54.09317 48.67945 26061 ft 414 kts 296°
2026-04-30 18:23 54.10880 48.63801 26388 ft 417 kts 296°
2026-04-30 18:23 54.12458 48.59609 26703 ft 421 kts 296°
2026-04-30 18:24 54.15640 48.51131 27355 ft 427 kts 296°
2026-04-30 18:24 54.17231 48.46886 27663 ft 430 kts 295°
2026-04-30 18:24 54.18850 48.42560 27960 ft 433 kts 295°
2026-04-30 18:25 54.20478 48.38198 28240 ft 436 kts 295°
2026-04-30 18:25 54.23759 48.29390 28818 ft 442 kts 295°
2026-04-30 18:25 54.25410 48.24945 29089 ft 444 kts 295°
2026-04-30 18:26 54.28680 48.15905 29602 ft 448 kts 294°
2026-04-30 18:26 54.30278 48.11307 29868 ft 450 kts 294°
2026-04-30 18:26 54.31872 48.06686 30131 ft 452 kts 294°
2026-04-30 18:27 54.35076 47.97404 30814 ft 451 kts 294°
2026-04-30 18:27 54.36674 47.92784 31235 ft 449 kts 294°
2026-04-30 18:28 54.39857 47.83564 31791 ft 451 kts 294°
2026-04-30 18:28 54.41453 47.78931 32071 ft 451 kts 295°
2026-04-30 18:28 54.44638 47.69678 32759 ft 448 kts 295°
2026-04-30 18:29 54.46200 47.65121 33004 ft 449 kts 295°
2026-04-30 18:29 54.50947 47.51216 33843 ft 447 kts 295°
2026-04-30 18:30 54.54091 47.41965 34323 ft 448 kts 295°
2026-04-30 18:30 54.57236 47.32678 34738 ft 450 kts 295°
2026-04-30 18:31 54.58810 47.28014 34901 ft 451 kts 296°
2026-04-30 18:31 54.61967 47.18637 35317 ft 451 kts 295°
2026-04-30 18:32 54.65114 47.09254 35736 ft 451 kts 296°
2026-04-30 18:32 54.66687 47.04552 35899 ft 452 kts 296°
2026-04-30 18:32 54.69802 46.95098 36109 ft 455 kts 295°
2026-04-30 18:33 54.71343 46.90323 36117 ft 456 kts 295°
2026-04-30 18:33 54.75950 46.76006 36111 ft 449 kts 295°
2026-04-30 18:34 54.80466 46.61930 36114 ft 447 kts 295°
2026-04-30 18:35 54.83911 46.52908 36131 ft 451 kts 304°
2026-04-30 18:35 54.87835 46.44386 36122 ft 452 kts 305°
2026-04-30 18:36 54.93734 46.31562 36118 ft 454 kts 304°
2026-04-30 18:37 54.99608 46.18542 36121 ft 456 kts 304°
2026-04-30 18:37 55.03508 46.09838 36117 ft 455 kts 304°
2026-04-30 18:38 55.07371 46.01187 36116 ft 454 kts 304°
2026-04-30 18:38 55.11240 45.92493 36124 ft 454 kts 304°
2026-04-30 18:39 55.15112 45.83760 36125 ft 455 kts 304°
2026-04-30 18:39 55.18989 45.74987 36120 ft 455 kts 304°
2026-04-30 18:40 55.22845 45.66231 36117 ft 454 kts 304°
2026-04-30 18:40 55.26691 45.57464 36125 ft 453 kts 304°
2026-04-30 18:41 55.30524 45.48694 36124 ft 453 kts 304°
2026-04-30 18:41 55.34346 45.39924 36130 ft 452 kts 304°
2026-04-30 18:42 55.38160 45.31137 36132 ft 452 kts 304°
2026-04-30 18:42 55.43867 45.17924 36132 ft 452 kts 304°
2026-04-30 18:45 55.57510 44.70123 36133 ft 441 kts 270°
2026-04-30 18:45 55.57607 44.64708 36146 ft 442 kts 270°
2026-04-30 18:46 55.57819 44.53849 36149 ft 442 kts 270°
2026-04-30 18:46 55.58065 44.42979 36146 ft 443 kts 270°
2026-04-30 18:47 55.58321 44.32092 36153 ft 443 kts 270°
2026-04-30 18:47 55.58571 44.21184 36145 ft 445 kts 270°
2026-04-30 18:48 55.58807 44.10246 36148 ft 445 kts 270°
2026-04-30 18:48 55.59032 43.99321 36141 ft 445 kts 270°
2026-04-30 18:49 55.59249 43.88380 36150 ft 444 kts 270°
2026-04-30 18:49 55.59455 43.77522 36147 ft 444 kts 270°
2026-04-30 18:50 55.59534 43.66598 36151 ft 443 kts 269°
2026-04-30 18:50 55.59538 43.55703 36158 ft 443 kts 269°
2026-04-30 18:51 55.59542 43.44805 36157 ft 443 kts 269°
2026-04-30 18:51 55.59549 43.33909 36155 ft 443 kts 269°
2026-04-30 18:52 55.59552 43.23003 36161 ft 443 kts 269°
2026-04-30 18:52 55.59548 43.12094 36154 ft 443 kts 269°
2026-04-30 18:53 55.59530 43.01187 36158 ft 443 kts 269°
2026-04-30 18:53 55.59502 42.90348 36159 ft 443 kts 269°
2026-04-30 18:54 55.59464 42.79437 36154 ft 444 kts 269°
2026-04-30 18:54 55.59419 42.68532 36150 ft 441 kts 269°
2026-04-30 18:55 55.59367 42.57895 36151 ft 428 kts 269°
2026-04-30 18:55 55.59269 42.42148 36156 ft 426 kts 269°
2026-04-30 18:56 55.59192 42.31571 35022 ft 427 kts 269°
2026-04-30 18:56 55.59152 42.26361 34531 ft 426 kts 269°
2026-04-30 18:56 55.59108 42.21140 34182 ft 421 kts 269°
2026-04-30 18:57 55.59017 42.10833 33335 ft 416 kts 268°
2026-04-30 18:57 55.58968 42.05732 32930 ft 413 kts 269°
2026-04-30 18:57 55.58917 42.00673 32536 ft 410 kts 268°
2026-04-30 18:58 55.58814 41.90658 31756 ft 404 kts 269°
2026-04-30 18:58 55.58759 41.85691 31370 ft 402 kts 268°
2026-04-30 18:58 55.58721 41.82433 31117 ft 400 kts 268°
2026-04-30 18:59 55.58579 41.71035 30177 ft 396 kts 268°
2026-04-30 19:00 55.58407 41.58147 29142 ft 387 kts 268°
2026-04-30 19:00 55.58341 41.53407 28756 ft 385 kts 268°
2026-04-30 19:00 55.58204 41.44088 27997 ft 378 kts 268°
2026-04-30 19:01 55.58066 41.34857 27256 ft 373 kts 268°
2026-04-30 19:01 55.57994 41.30292 26888 ft 370 kts 268°
2026-04-30 19:02 55.57847 41.21374 26214 ft 357 kts 267°
2026-04-30 19:02 55.57693 41.12716 25435 ft 347 kts 267°
2026-04-30 19:03 55.57540 41.04349 24732 ft 335 kts 266°
2026-04-30 19:03 55.57388 40.96284 24065 ft 323 kts 266°
2026-04-30 19:04 55.57235 40.88463 23426 ft 312 kts 266°
2026-04-30 19:04 55.57081 40.80835 22820 ft 310 kts 266°
2026-04-30 19:05 55.56918 40.73081 22211 ft 324 kts 266°
2026-04-30 19:05 55.56746 40.65071 21530 ft 325 kts 266°
2026-04-30 19:06 55.56573 40.57127 20867 ft 322 kts 266°
2026-04-30 19:06 55.56485 40.53188 20543 ft 320 kts 266°
2026-04-30 19:06 55.56304 40.45424 19905 ft 316 kts 266°
2026-04-30 19:07 55.56095 40.37702 19269 ft 313 kts 266°
2026-04-30 19:07 55.55989 40.33872 18953 ft 312 kts 266°
2026-04-30 19:08 55.55775 40.26260 18323 ft 309 kts 266°
2026-04-30 19:08 55.55559 40.18708 17694 ft 306 kts 266°
2026-04-30 19:08 55.55450 40.14963 17385 ft 305 kts 266°
2026-04-30 19:09 55.55232 40.07519 16772 ft 302 kts 267°
2026-04-30 19:09 55.55121 40.03829 16469 ft 300 kts 267°
2026-04-30 19:09 55.55011 40.00161 16249 ft 298 kts 268°
2026-04-30 19:10 55.55266 39.92832 16192 ft 291 kts 276°
2026-04-30 19:10 55.55697 39.86043 16183 ft 265 kts 276°
2026-04-30 19:11 55.55886 39.82871 16187 ft 255 kts 276°
2026-04-30 19:11 55.56232 39.76728 15729 ft 254 kts 276°
2026-04-30 19:11 55.56406 39.73532 14991 ft 271 kts 275°
2026-04-30 19:12 55.56592 39.70066 14220 ft 291 kts 276°
2026-04-30 19:12 55.56488 39.66503 13899 ft 291 kts 257°
2026-04-30 19:12 55.55970 39.63070 13675 ft 288 kts 255°
2026-04-30 19:13 55.54855 39.56202 12887 ft 295 kts 255°
2026-04-30 19:13 55.53739 39.49234 12247 ft 293 kts 255°
2026-04-30 19:13 55.53193 39.45772 11960 ft 291 kts 255°
2026-04-30 19:14 55.52659 39.42351 11686 ft 288 kts 256°
2026-04-30 19:14 55.52130 39.38955 11413 ft 286 kts 256°
2026-04-30 19:14 55.51607 39.35586 11144 ft 283 kts 256°
2026-04-30 19:14 55.51088 39.32251 10877 ft 281 kts 256°
2026-04-30 19:15 55.50574 39.28942 10531 ft 281 kts 256°
2026-04-30 19:15 55.49545 39.22330 9877 ft 273 kts 256°
2026-04-30 19:15 55.49046 39.19138 9613 ft 267 kts 256°
2026-04-30 19:16 55.48556 39.16003 9363 ft 264 kts 256°
2026-04-30 19:16 55.48064 39.12871 9120 ft 264 kts 256°
2026-04-30 19:16 55.47093 39.06676 8630 ft 264 kts 256°
2026-04-30 19:17 55.46603 39.03555 8379 ft 264 kts 256°
2026-04-30 19:17 55.45617 38.97306 7879 ft 265 kts 256°
2026-04-30 19:17 55.45122 38.94175 7629 ft 266 kts 256°
2026-04-30 19:18 55.44296 38.88963 7207 ft 265 kts 256°
2026-04-30 19:18 55.43876 38.84749 6740 ft 260 kts 268°
2026-04-30 19:18 55.43802 38.81605 6460 ft 253 kts 270°
2026-04-30 19:19 55.43752 38.78533 6204 ft 249 kts 270°
2026-04-30 19:19 55.43695 38.75526 5952 ft 243 kts 270°
2026-04-30 19:19 55.43557 38.69732 5477 ft 231 kts 269°
2026-04-30 19:20 55.43481 38.66942 5252 ft 225 kts 269°
2026-04-30 19:20 55.43402 38.64229 5034 ft 220 kts 269°
2026-04-30 19:20 55.43245 38.58932 4625 ft 216 kts 269°
2026-04-30 19:21 55.43164 38.56303 4453 ft 213 kts 269°
2026-04-30 19:21 55.43003 38.51150 4018 ft 210 kts 269°
2026-04-30 19:22 55.42836 38.45977 3610 ft 214 kts 269°
2026-04-30 19:22 55.43585 38.38648 2994 ft 205 kts 309°
2026-04-30 19:23 55.46263 38.32987 2404 ft 187 kts 311°
2026-04-30 19:24 55.47792 38.29931 2114 ft 154 kts 311°
2026-04-30 19:24 55.48493 38.28531 1911 ft 151 kts 311°
2026-04-30 19:24 55.49898 38.25722 1517 ft 154 kts 311°
2026-04-30 19:25 55.52012 38.21500 907 ft 152 kts 311°
2026-04-30 19:26 55.53405 38.18716 504 ft 155 kts 310°
2026-04-30 19:26 55.54757 38.16020 400 ft 110 kts 311°
2026-04-30 19:26 55.55120 38.15298 401 ft 48 kts 310°
2026-04-30 19:27 55.55372 38.14805 406 ft 29 kts 311°
2026-04-30 19:27 55.55586 38.14329 405 ft 18 kts 258°
2026-04-30 19:28 55.55516 38.14188 401 ft 10 kts 221°
2026-04-30 19:28 55.55477 38.14104 404 ft 4 kts 253°
2026-04-30 19:29 55.55494 38.14001 404 ft 6 kts 307°
2026-04-30 19:29 55.55529 38.13932 403 ft 8 kts 311°
2026-04-30 19:30 55.55693 38.13605 406 ft 18 kts 311°
2026-04-30 19:30 55.55881 38.13232 407 ft 23 kts 311°
2026-04-30 19:31 55.56038 38.12923 408 ft 15 kts 310°
2026-04-30 19:31 55.56094 38.12768 410 ft 16 kts 299°
2026-04-30 19:31 55.56223 38.12485 411 ft 15 kts 312°
2026-04-30 19:32 55.56281 38.12365 410 ft 14 kts 304°
2026-04-30 19:32 55.56292 38.12226 409 ft 10 kts 268°
2026-04-30 19:32 55.56290 38.12155 410 ft 0 kts 264°